Terminal Aerodrome Forecast
Issued by NWS North Platte, NE

Home | Current Version | Previous Version | Text Only | Print | Product List | Glossary On
Versions: 1 2 3 4 5 6 7 8 9 10 11 12 13 14 15 16 17 18 19 20 21 22 23 24 25 26 27 28 29 30
000
FTUS43 KLBF 290500
TAFLBF
TAF
KLBF 290523Z 2906/3006 33005KT P6SM SCT025
     FM290900 VRB04KT 3SM BCFG SCT100
     FM291500 35010KT P6SM SCT250
     FM300100 VRB06KT P6SM SCT250=

USA.gov is the U.S. government's official web portal to all federal, state and local government web resources and services.